This is the latest recevied weather packets stored in our database for station/object W4GAP. If no packets are shown the sender has not sent any weather packets the latest 10 day(s).
| Time | Temp. | Humidity | Pressure | Rain* | Wind** | Luminosity | Snow |
|---|---|---|---|---|---|---|---|
| 1777466315 | 16.67° C | 99% | 1011.6 hPa | 0 mm | - | 23 W/m² | - |
| 1777466012 | 16.67° C | 99% | 1011.4 hPa | 0 mm | - | 16 W/m² | - |
| 1777465707 | 16.67° C | 99% | 1011.4 hPa | 0 mm | - | 16 W/m² | - |
| 1777465404 | 16.67° C | 99% | 1011.6 hPa | 0 mm | - | 18 W/m² | - |
| 1777465102 | 16.67° C | 99% | 1011.7 hPa | 0 mm | - | 26 W/m² | - |
| 1777464798 | 16.67° C | 99% | 1011.9 hPa | 0 mm | - | 20 W/m² | - |
| 1777464493 | 16.67° C | 99% | 1011.7 hPa | 0 mm | - | 15 W/m² | - |
| 1777464190 | 16.67° C | 99% | 1011.7 hPa | 0 mm | - | 16 W/m² | - |
| 1777463890 | 16.67° C | 99% | 1011.6 hPa | 0 mm | - | 11 W/m² | - |
| 1777463586 | 16.67° C | 99% | 1011.6 hPa | 0 mm | - | 10 W/m² | - |
| 1777463281 | 16.67° C | 99% | 1011.8 hPa | 0 mm | - | 8 W/m² | - |
| 1777462977 | 16.67° C | 99% | 1011.8 hPa | 0 mm | - | 8 W/m² | - |
| 1777462673 | 16.67° C | 99% | 1011.9 hPa | 0 mm | - | 6 W/m² | - |
| 1777462368 | 16.67° C | 99% | 1011.6 hPa | 0 mm | - | 6 W/m² | - |
| 1777462064 | 16.67° C | 99% | 1011.7 hPa | 0 mm | - | 4 W/m² | - |
| 1777461762 | 16.67° C | 99% | 1011.8 hPa | 0 mm | - | 2 W/m² | - |
| 1777461457 | 16.67° C | 99% | 1011.8 hPa | 0 mm | - | 1 W/m² | - |
| 1777461154 | 16.67° C | 99% | 1011.7 hPa | 0 mm | - | 0 W/m² | - |
| 1777460849 | 16.67° C | 99% | 1011.7 hPa | 0 mm | - | 0 W/m² | - |
| 1777460545 | 16.67° C | 99% | 1011.9 hPa | 0 mm | - | 0 W/m² | - |
| 1777460240 | 16.67° C | 99% | 1012.5 hPa | 0 mm | - | 0 W/m² | - |
| 1777459938 | 16.67° C | 99% | 1012.4 hPa | 0 mm | - | 0 W/m² | - |
| 1777459635 | 16.67° C | 99% | 1012.8 hPa | 0 mm | - | 0 W/m² | - |
| 1777459331 | 16.67° C | 99% | 1012.4 hPa | 0 mm | - | 0 W/m² | - |
| 1777459030 | 16.67° C | 99% | 1012.3 hPa | 0 mm | - | 0 W/m² | - |
* Rain latest hour (hover to see other rain measurements)
** Current wind speed in m/s (hover to see current wind gust speed)